Location: Bednik
(45.3500°N, 16.3833°E)
Time: 17:48:51
(UTC+00:00)

Cosmos 1980 Rocket - Pass Details

Date: 08 August 2020
Orbit: 830 x 849 km, 71.0° (Epoch: 25 September)

Event Time Altitude Azimuth Distance (km) Brightness Sun altitude
Rises 20:37:29 0° 330° (NNW) 3,418 6.9 -20.8°
Reaches altitude 10° 20:39:58 10° 327° (NNW) 2,477 5.8 -21.1°
Maximum altitude 20:45:32 59° 250° (WSW) 970 2.5 -21.7°
Enters shadow 20:47:37 37° 189° (S) 1,290 2.8 -21.9°
